Weather in Baysa

Russia / Kirov Oblast     57°11′56″N   49°31′39″E
temp.,
°C
wind,
m/s
gust,
m/s
humid.,
%
clouds,
%
prec.,
mm/h
press.,
hPa
HPBL,
m
25 february, thu
thu2500:00−25w229582 0.0 103420
03:00−26sw239768 0.0 103319
06:00−26s339735 0.0 103036
09:00−22sse589467 0.0 1027238
12:00−19sse61091100 0.0 1024351
15:00−17sse71196100 0.4 1022443
18:00−18sse61195100 0.7 1020571
21:00−19se5109499 0.9 1019420
26 february, fri
fri2600:00−19se51095100 0.1 1019359
03:00−20se599699 0.1 1019315
06:00−21se5996100 0.0 1018268
09:00−20se5109698 0.1 1018343
12:00−17se6993100 0.0 1016435
15:00−16se71292100 0.1 1015474
18:00−17se81592100 0.0 1010523
21:00−15se91693100 0.2 1006558
27 february, sat
sat2700:00−16se81595100 3.1 1002600
03:00−15se71395100 5.4 1001549
06:00−15ese61293100 0.5 1000445
09:00−14e61093100 0.7 1000474
12:00−12e6992100 0.2 1000486
15:00−11ene5891100 0.3 1002534
18:00−12ne599598 0.1 1003313
21:00−13ne499592 0.3 1004247
28 february, sun
sun2800:00−14ne599591 0.2 1005300
03:00−15nne599595 0.4 1007319
06:00−16nne5994100 0.1 1008339
09:00−17nne589495 0.2 1009311
12:00−16nne579187 0.0 1011368
15:00−15nne589090 0.0 1012489
18:00−18n469693 0.0 1014101
21:00−21n349772 0.0 101771
1 march, mon
mon100:00−22n34970 0.0 101853
03:00−23n34970 0.0 102059
06:00−23n34960 0.0 102141
09:00−19nnw34940 0.0 1022145
12:00−14wnw238734 0.0 1022294
15:00−14w359140 0.0 1021234
18:00−15wsw489462 0.0 1019168
21:00−13wsw5119476 0.0 1017273